Вернуться в каталог

STARLINK-6272

АктивенСвязьVLEO
NORAD 56420·PAYLOAD·🇺🇸 United States

Запущен May 4, 2023 с Cape Canaveral Space Force Station

Loading…

Ближайшие Пролёты (ближайшие 24 часа)

TLE

СвежийSource: CelesTrak SupGP

Эпоха: Sep 15, 2026, 01:52 UTC

1 56420C 23061AY  26258.07826389 -.00013876  00000+0 -50263-3 0  2588
2 56420  43.0027 189.9366 0001835 276.7244 125.4028 15.27581354    10

Отслеживайте STARLINK-6272 в реальном времени с AllMySat

Download on the App Store